Location: La Silve
(44.2414°N, 5.8889°E)
Time: 10:05:21
(UTC+00:00)

Cosmos 1939 Rocket - Pass Details

Date: 01 December 2020
Orbit: 532 x 584 km, 97.4° (Epoch: 25 January)

Event Time Altitude Azimuth Distance (km) Brightness Sun altitude
Rises 17:29:40 0° 161° (SSE) 2,671 6.3 -15.8°
Reaches altitude 10° 17:31:46 10° 159° (SSE) 1,789 5.4 -16.2°
Maximum altitude 17:35:36 70° 76° (ENE) 579 2.6 -16.8°
Drops below altitude 10° 17:39:32 10° 352° (N) 1,828 5.4 -17.5°
Sets 17:41:41 0° 350° (N) 2,735 6.3 -17.9°
